This is the latest recevied weather packets stored in our database for station/object DL9GRB-13. If no packets are shown the sender has not sent any weather packets the latest 10 day(s).
| Time | Temp. | Humidity | Pressure | Rain* | Wind** | Luminosity | Snow |
|---|---|---|---|---|---|---|---|
| 1778139429 | 11.67° C | 64% | 1014.2 hPa | 0 mm | - | 446 W/m² | - |
| 1778139249 | 11.67° C | 64% | 1014 hPa | 0 mm | - | 443 W/m² | - |
| 1778139068 | 11.67° C | 63% | 1014 hPa | 0 mm | - | 440 W/m² | - |
| 1778138888 | 11.11° C | 66% | 1014 hPa | 0 mm | - | 435 W/m² | - |
| 1778138708 | 10.56° C | 66% | 1014.1 hPa | 0 mm | - | 425 W/m² | - |
| 1778138528 | 10.56° C | 65% | 1014 hPa | 0 mm | - | 416 W/m² | - |
| 1778138348 | 10.56° C | 65% | 1014.2 hPa | 0 mm | - | 406 W/m² | - |
| 1778138168 | 10.56° C | 65% | 1014.1 hPa | 0 mm | - | 399 W/m² | - |
| 1778137989 | 10.56° C | 65% | 1014.2 hPa | 0 mm | - | 392 W/m² | - |
| 1778137809 | 10.56° C | 67% | 1013.9 hPa | 0 mm | - | 386 W/m² | - |
| 1778137628 | 10.56° C | 65% | 1014 hPa | 0 mm | - | 375 W/m² | - |
| 1778137449 | 10.56° C | 66% | 1014 hPa | 0 mm | - | 369 W/m² | - |
| 1778137268 | 10.56° C | 65% | 1014.1 hPa | 0 mm | - | 362 W/m² | - |
| 1778137088 | 10° C | 67% | 1014 hPa | 0 mm | - | 356 W/m² | - |
| 1778136908 | 10° C | 67% | 1014 hPa | 0 mm | - | 354 W/m² | - |
| 1778136729 | 10° C | 67% | 1013.9 hPa | 0 mm | - | 313 W/m² | - |
| 1778136548 | 10° C | 70% | 1014 hPa | 0 mm | - | 343 W/m² | - |
| 1778136368 | 9.44° C | 71% | 1014.1 hPa | 0 mm | - | 336 W/m² | - |
| 1778136188 | 9.44° C | 71% | 1013.9 hPa | 0 mm | - | 322 W/m² | - |
| 1778136008 | 8.89° C | 71% | 1014.1 hPa | 0 mm | - | 293 W/m² | - |
| 1778135828 | 8.33° C | 74% | 1013.9 hPa | 0 mm | - | 319 W/m² | - |
| 1778135648 | 8.33° C | 74% | 1013.8 hPa | 0 mm | - | 152 W/m² | - |
| 1778135468 | 8.33° C | 75% | 1013.9 hPa | 0 mm | - | 121 W/m² | - |
| 1778135288 | 8.33° C | 76% | 1013.8 hPa | 0 mm | - | 133 W/m² | - |
| 1778135108 | 8.33° C | 76% | 1013.8 hPa | 0 mm | - | 116 W/m² | - |
* Rain latest hour (hover to see other rain measurements)
** Current wind speed in m/s (hover to see current wind gust speed)